Cotulla, TX

9:29 PM CST on November 17, 2019 (GMT -0600)
Cotulla-La Salle County

Weather History for KCOT - August, 2019

Change the Weather History Date:

Friday, August 9, 2019

  Actual Average Record
Temperature  
Mean Temperature 92 °F -  
Max Temperature 106 °F 97 °F 108 °F (2003)
Min Temperature 79 °F 73 °F 71 °F (2007)
Cooling Degree Days 27    
Growing Degree Days 42 (Base 50)    
Moisture  
Dew Point 69 °F    
Average Humidity 55    
Maximum Humidity 88    
Minimum Humidity 21    
Precipitation  
Precipitation 0.00 in - - ()
Sea Level Pressure  
Sea Level Pressure 29.85 in    
Wind  
Wind Speed 14 mph (SE)    
Max Wind Speed 24 mph    
Max Gust Speed 30 mph    
Visibility 10 miles    
Events      
Averages and records for this station are not official NWS values.
T = Trace of Precipitation, MM = Missing Value Source: NWS Daily Summary

Daily Weather History Graph

Daily Weather History Graph

Search for Another Location

Airport or City:

Astronomy

Aug. 09, 2019 Rise Set
Actual Time 7:03 AM CDT 8:21 PM CDT
Civil Twilight 6:37 AM CDT 8:46 PM CDT
Nautical Twilight 6:08 AM CDT 9:16 PM CDT
Astronomical Twilight 5:37 AM CDT 9:46 PM CDT
Moon 3:58 PM CDT (8/9) 2:04 AM CDT (8/9)
Length of Visible Light 14h 08m
Length of Day
13h 18m
Waxing Gibbous, 70% of the Moon is Illuminated
Aug 9
Waxing Gibbous
Aug 15
Full
Aug 23
Last Quarter
Aug 30
New
Sep 5
First Quarter

Hourly Weather History & Observations

Time (CDT) Temp. Heat Index Dew Point Humidity Pressure Visibility Wind Dir Wind Speed Gust Speed Precip Events Conditions
12:53 AM 84.9 °F 93.3 °F 75.0 °F 72% 29.85 in 10.0 mi SE 19.6 mph 25.3 mph N/A   Clear
1:53 AM 84.0 °F 91.9 °F 75.0 °F 74% 29.84 in 10.0 mi SE 13.8 mph - N/A   Clear
2:53 AM 82.0 °F 87.9 °F 73.9 °F 76% 29.85 in 10.0 mi SE 9.2 mph - N/A   Clear
3:53 AM 81.0 °F 86.2 °F 73.9 °F 79% 29.84 in 10.0 mi SSE 12.7 mph - N/A   Clear
4:53 AM 81.0 °F 86.2 °F 73.9 °F 79% 29.85 in 10.0 mi SE 9.2 mph - N/A   Clear
5:53 AM 80.1 °F 85.1 °F 75.0 °F 85% 29.85 in 10.0 mi ESE 10.4 mph - N/A   Clear
6:53 AM 79.0 °F - 75.0 °F 88% 29.86 in 10.0 mi ESE 9.2 mph - N/A   Clear
7:53 AM 80.1 °F 85.1 °F 75.0 °F 85% 29.89 in 9.0 mi ESE 9.2 mph - N/A   Clear
8:53 AM 84.0 °F 92.6 °F 75.9 °F 76% 29.91 in 10.0 mi SE 15.0 mph 21.9 mph N/A   Clear
9:53 AM 87.1 °F 95.4 °F 73.9 °F 65% 29.91 in 10.0 mi SSE 13.8 mph 23.0 mph N/A   Clear
10:53 AM 91.0 °F 96.6 °F 70.0 °F 50% 29.92 in 10.0 mi SSE 15.0 mph 21.9 mph N/A   Clear
11:53 AM 96.1 °F 98.3 °F 64.0 °F 35% 29.91 in 10.0 mi South 15.0 mph 29.9 mph N/A   Clear
12:53 PM 98.1 °F 100.7 °F 64.0 °F 33% 29.89 in 10.0 mi South 12.7 mph 21.9 mph N/A   Clear
1:53 PM 102.0 °F 103.9 °F 62.1 °F 27% 29.86 in 10.0 mi SSE 15.0 mph 20.7 mph N/A   Clear
2:53 PM 100.9 °F 101.6 °F 60.1 °F 26% 29.84 in 10.0 mi SSE 13.8 mph 26.5 mph N/A   Clear
3:53 PM 104.0 °F 105.3 °F 61.0 °F 24% 29.81 in 10.0 mi SSE 11.5 mph 25.3 mph N/A   Clear
4:53 PM 104.0 °F 105.3 °F 61.0 °F 24% 29.79 in 10.0 mi SE 11.5 mph 25.3 mph N/A   Clear
5:53 PM 105.1 °F 105.0 °F 57.9 °F 21% 29.77 in 10.0 mi SE 13.8 mph 25.3 mph N/A   Clear
6:53 PM 104.0 °F 103.4 °F 57.0 °F 21% 29.76 in 10.0 mi South 11.5 mph 20.7 mph N/A   Clear
7:53 PM 100.9 °F 101.0 °F 59.0 °F 25% 29.77 in 10.0 mi SSE 15.0 mph - N/A   Clear
8:53 PM 93.9 °F 103.4 °F 73.0 °F 51% 29.80 in 10.0 mi ESE 18.4 mph 25.3 mph N/A   Clear
9:53 PM 90.0 °F 99.0 °F 73.9 °F 59% 29.81 in 10.0 mi SE 24.2 mph - N/A   Clear
10:53 PM 87.1 °F 95.4 °F 73.9 °F 65% 29.84 in 10.0 mi SE 16.1 mph 25.3 mph N/A   Clear
11:53 PM 84.9 °F 93.3 °F 75.0 °F 72% 29.87 in 10.0 mi ESE 17.3 mph - N/A   Clear